�������C�����ː����j�^�v���󋵏��
Date,Time,Cs137(Bq/L),Cs134(Bq/L),�S��(Bq/L)
2018/05/16,00:00,0.17,ND,ND
2018/05/16,00:10,0.16,ND,ND
2018/05/16,00:20,0.15,ND,ND
2018/05/16,00:30,0.13,ND,ND
2018/05/16,00:40,0.13,ND,ND
2018/05/16,00:50,0.12,ND,ND
2018/05/16,01:00,0.11,ND,ND
2018/05/16,01:10,0.092,ND,ND
2018/05/16,01:20,0.12,ND,ND
2018/05/16,01:30,0.14,ND,ND
2018/05/16,01:40,0.14,ND,ND
2018/05/16,01:50,0.13,ND,ND
2018/05/16,02:00,0.14,ND,ND
2018/05/16,02:10,0.15,ND,ND
2018/05/16,02:20,0.12,ND,ND
2018/05/16,02:30,0.12,ND,ND
2018/05/16,02:40,0.14,ND,ND
2018/05/16,02:50,0.15,ND,ND
2018/05/16,03:00,0.16,ND,ND
2018/05/16,03:10,0.16,ND,ND
2018/05/16,03:20,0.17,ND,ND
2018/05/16,03:30,0.17,ND,ND
2018/05/16,03:40,0.17,ND,ND
2018/05/16,03:50,0.15,ND,ND
2018/05/16,04:00,0.13,ND,ND
2018/05/16,04:10,0.14,ND,9.7
2018/05/16,04:20,0.14,ND,9.6
2018/05/16,04:30,0.14,ND,ND
2018/05/16,04:40,0.12,ND,ND
2018/05/16,04:50,0.13,ND,ND
2018/05/16,05:00,0.16,ND,ND
2018/05/16,05:10,0.15,ND,ND
2018/05/16,05:20,0.13,ND,ND
2018/05/16,05:30,0.15,ND,ND
2018/05/16,05:40,0.15,ND,ND
2018/05/16,05:50,0.15,ND,ND
2018/05/16,06:00,0.14,ND,ND
2018/05/16,06:10,0.14,ND,ND
2018/05/16,06:20,0.15,ND,9.5
2018/05/16,06:30,0.15,ND,ND
2018/05/16,06:40,0.15,ND,ND
2018/05/16,06:50,0.15,ND,ND
2018/05/16,07:00,0.16,ND,ND
2018/05/16,07:10,0.15,ND,ND
2018/05/16,07:20,0.15,ND,ND
2018/05/16,07:30,0.15,ND,ND
2018/05/16,07:40,0.16,ND,ND
2018/05/16,07:50,0.16,ND,ND
2018/05/16,08:00,0.16,ND,ND
2018/05/16,08:10,0.18,ND,ND
2018/05/16,08:20,0.17,ND,ND
2018/05/16,08:30,0.18,ND,ND
2018/05/16,08:40,0.19,ND,ND
2018/05/16,08:50,0.18,ND,ND
2018/05/16,09:00,0.19,ND,ND
2018/05/16,09:10,0.18,ND,ND
2018/05/16,09:20,0.21,ND,ND
2018/05/16,09:30,0.21,ND,ND
2018/05/16,09:40,0.20,ND,ND
2018/05/16,09:50,0.22,ND,ND
2018/05/16,10:00,0.19,ND,ND
2018/05/16,10:10,0.21,ND,ND
2018/05/16,10:20,0.20,ND,ND
2018/05/16,10:30,0.22,ND,ND
2018/05/16,10:40,0.22,ND,ND
2018/05/16,10:50,0.21,ND,ND
2018/05/16,11:00,0.24,ND,ND
2018/05/16,11:10,0.24,ND,ND
2018/05/16,11:20,0.25,ND,ND
2018/05/16,11:30,0.25,ND,ND
2018/05/16,11:40,0.23,ND,ND
2018/05/16,11:50,0.25,ND,ND
2018/05/16,12:00,0.22,ND,ND
2018/05/16,12:10,0.22,ND,ND
2018/05/16,12:20,0.21,ND,ND
2018/05/16,12:30,0.20,ND,ND
2018/05/16,12:40,0.21,ND,ND
2018/05/16,12:50,0.19,ND,ND
2018/05/16,13:00,0.20,ND,ND
2018/05/16,13:10,0.20,ND,ND
2018/05/16,13:20,0.18,ND,ND
2018/05/16,13:30,0.16,ND,ND
2018/05/16,13:40,0.14,ND,ND
2018/05/16,13:50,0.13,ND,ND
2018/05/16,14:00,0.11,ND,ND
2018/05/16,14:10,0.083,ND,ND
2018/05/16,14:20,0.089,ND,ND
2018/05/16,14:30,0.091,ND,ND
2018/05/16,14:40,0.091,ND,ND
2018/05/16,14:50,0.077,ND,ND
2018/05/16,15:00,0.081,ND,ND
2018/05/16,15:10,0.081,ND,ND
2018/05/16,15:20,0.069,ND,ND
2018/05/16,15:30,0.059,ND,ND
2018/05/16,15:40,0.048,ND,ND
2018/05/16,15:50,0.064,ND,ND
2018/05/16,16:00,0.064,ND,ND
2018/05/16,16:10,0.065,ND,ND
2018/05/16,16:20,0.070,ND,ND
2018/05/16,16:30,0.073,ND,ND
2018/05/16,16:40,0.083,ND,ND
2018/05/16,16:50,0.083,ND,ND
2018/05/16,17:00,0.085,ND,ND
2018/05/16,17:10,0.091,ND,ND
2018/05/16,17:20,0.083,ND,ND
2018/05/16,17:30,0.081,ND,ND
2018/05/16,17:40,0.089,ND,ND
2018/05/16,17:50,0.091,ND,ND
2018/05/16,18:00,0.074,ND,ND
2018/05/16,18:10,0.070,ND,ND
2018/05/16,18:20,0.084,ND,ND
2018/05/16,18:30,0.11,ND,ND
2018/05/16,18:40,0.098,ND,ND
2018/05/16,18:50,0.10,ND,ND
2018/05/16,19:00,0.12,ND,ND
2018/05/16,19:10,0.13,ND,ND
2018/05/16,19:20,0.14,ND,ND
2018/05/16,19:30,0.11,ND,ND
2018/05/16,19:40,0.12,ND,ND
2018/05/16,19:50,0.099,ND,ND
2018/05/16,20:00,0.084,ND,ND
2018/05/16,20:10,0.082,ND,ND
2018/05/16,20:20,0.082,ND,ND
2018/05/16,20:30,0.086,ND,ND
2018/05/16,20:40,0.097,ND,ND
2018/05/16,20:50,0.11,ND,ND
2018/05/16,21:00,0.15,ND,ND
2018/05/16,21:10,0.15,ND,ND
2018/05/16,21:20,0.15,ND,ND
2018/05/16,21:30,0.16,ND,ND
2018/05/16,21:40,0.18,ND,ND
2018/05/16,21:50,0.18,ND,ND
2018/05/16,22:00,0.13,ND,ND
2018/05/16,22:10,0.16,ND,ND
2018/05/16,22:20,0.16,ND,ND
2018/05/16,22:30,0.19,ND,ND
2018/05/16,22:40,0.17,ND,ND
2018/05/16,22:50,0.14,ND,ND
2018/05/16,23:00,0.14,ND,ND
2018/05/16,23:10,0.14,ND,ND
2018/05/16,23:20,0.13,ND,ND
2018/05/16,23:30,0.13,ND,ND
2018/05/16,23:40,0.13,ND,ND
2018/05/16,23:50,0.13,ND,ND
